Location: Kampernieuwstad
(52.5135°N, 5.8742°E)
Time: 21:04:08
(UTC+00:00)

RESURS DK-1 - Pass Details

Date: 15 May 2026
Orbit: 522 x 531 km, 69.9° (Epoch: 7 June)

Event Time Altitude Azimuth Distance (km) Brightness Sun altitude
Rises 22:12:50 0° 327° (NNW) 2,683 7.4 -16.4°
Reaches altitude 10° 22:15:01 10° 327° (NNW) 1,790 6.2 -16.5°
Maximum altitude 22:19:01 87° 56° (NE) 540 2.2 -16.7°
Enters shadow 22:20:37 35° 146° (SE) 866 2.8 -16.7°
